Regional Weather Roundup
Issued by NWS Albany, NY

Home | Current Version | Previous Version | Text Only | Print | Product List | Glossary On
Versions: 1 2 3 4 5 6 7 8 9 10 11 12 13 14 15 16 17 18 19 20 21 22 23 24 25 26 27 28 29 30 31 32 33 34 35 36 37 38 39 40 41 42 43 44 45 46 47 48 49 50
000
ASUS41 KALY 220110
RWRALY

NEW YORK STATE HOURLY WEATHER ROUNDUP
NATIONAL WEATHER SERVICE ALBANY NY
800 PM EST SAT JAN 21 2017

NOTE: "FAIR" INDICATES FEW OR NO CLOUDS BELOW 12,000 FEET WITH NO
SIGNIFICANT WEATHER AND/OR NO OBSTRUCTIONS TO VISIBILITY.

NYZ032-033-038>043-046>054-057>066-NYZ062>081-082-084-220200-
EAST


CITY           SKY/WX    TMP DP  RH WIND       PRES   REMARKS
ALBANY         MOCLDY    42  37  82 CALM      29.78S
GLENS FALLS    FOG       32  29  88 CALM      29.76F VSB 3/4
POUGHKEEPSIE   CLOUDY    46  43  89 CALM      29.79R
NEWBURGH       CLOUDY    45  45 100 W7        29.81S FOG
MONTGOMERY     CLOUDY    44  43  96 SW6       29.78F FOG
WHITE PLAINS   FOG       43  41  93 W3        29.79F VSB 1/2
ISLIP          FOG       43  43 100 W5        29.81S VSB 1/8
NEW YORK CITY  CLOUDY    48  44  86 SW7       29.82R FOG
CENTRAL PARK   CLOUDY    44  44 100 CALM      29.84S FOG
$$

NYZ005>009-017-018-044>046-055-056-220200-
CENTRAL


CITY           SKY/WX    TMP DP  RH WIND       PRES   REMARKS
FULTON         CLOUDY    45  43  93 SE3       29.75S
SYRACUSE       CLOUDY    44  43  96 E7        29.75S
ROME           CLOUDY    43  42  97 E8        29.78S
ELMIRA         CLOUDY    39  37  92 CALM      29.75F
BINGHAMTON     CLOUDY    43  43 100 S3        29.76F FOG
MONTICELLO     CLOUDY    37  37 100 CALM      29.80F VSB 1/4
$$

NYZ026>034-041>043-087-220200-
NORTH


CITY           SKY/WX    TMP DP  RH WIND       PRES   REMARKS
WATERTOWN      FOG       38  38 100 CALM      29.76R VSB 1/4
FORT DRUM      NOT AVBL
OGDENSBURG     CLOUDY    37  37  98 NE3       29.78S FOG
MASSENA        CLOUDY    37  37 100 CALM      29.80S FOG
SARANAC LAKE   FOG       37  36  96 CALM      29.73S VSB 1/2
PLATTSBURGH    FOG       38  37  97 N5        29.78S VSB 1/2 WCI  34
$$

NYZ001>004-010>016-019>021-085-220200-
WEST


CITY           SKY/WX    TMP DP  RH WIND       PRES   REMARKS
NIAGARA FALLS  FOG       45  42  89 N3        29.69S VSB 1/4
BUFFALO        CLOUDY    53  47  79 NE3       29.69S
DUNKIRK        CLOUDY    45  43  93 N5        29.70R
JAMESTOWN        N/A     54  46  76 SW6       29.71R
WELLSVILLE     CLOUDY    50  46  86 VRB3      29.73F
ROCHESTER      CLOUDY    46  43  89 NE5       29.72S
PENN YAN       CLOUDY    51  43  74 SW8       29.73F
$$

             KEY
       WCI = WIND CHILL INDEX
       VSB = VISIBILITY
       HX  = HEAT INDEX
$$



USA.gov is the U.S. government's official web portal to all federal, state and local government web resources and services.